TKJ60J EDDF-LTFJ

Flight info

Callsign TKJ60J
Flight time N/A
Altitude 31000
Route CINDY8S CINDY Z74 HAREM DCT ASLEP DCT TAKUT DCT DINKU L603 BESNI/N0460F350 L605 MIQ DCT ALUTU/N0459F370 DCT BIBAG L605 ESEGA DCT LIMRA DCT NURMI DCT GOTAR DCT BABIT DCT KOTUS DCT ETIDA DCT BUFRA DCT GERGI L614 ADORU UM19 IBODU
Aircraft B38M/M-SDE1FGHILORVWXY/HB1

Departure

Time N/A
Airport Frankfurt Main Airport (EDDF)

Arrival

Time 2026-05-07 10:07
Airport Istanbul Sabiha Gökçen International Airport (LTFJ)
Time Latitude Longitude Altitude Speed Heading
2026-05-07 09:32 41.94220 26.33518 35118 ft 490 kts 111°
2026-05-07 09:33 41.92942 26.37760 35117 ft 490 kts 111°
2026-05-07 09:33 41.90378 26.46243 35117 ft 490 kts 111°
2026-05-07 09:34 41.87791 26.54720 35102 ft 491 kts 115°
2026-05-07 09:34 41.85991 26.58587 35106 ft 488 kts 130°
2026-05-07 09:34 41.83833 26.62115 35115 ft 491 kts 129°
2026-05-07 09:35 41.79509 26.69227 35120 ft 493 kts 129°
2026-05-07 09:35 41.75137 26.76299 35102 ft 492 kts 130°
2026-05-07 09:36 41.70765 26.83340 35110 ft 492 kts 130°
2026-05-07 09:36 41.66416 26.90330 35114 ft 493 kts 130°
2026-05-07 09:37 41.62013 26.97387 35112 ft 494 kts 130°
2026-05-07 09:37 41.57608 27.04436 35111 ft 494 kts 130°
2026-05-07 09:37 41.55533 27.08092 35085 ft 493 kts 118°
2026-05-07 09:38 41.54069 27.12205 35134 ft 491 kts 112°
2026-05-07 09:38 41.51233 27.20521 35121 ft 493 kts 112°
2026-05-07 09:39 41.48425 27.28868 35111 ft 493 kts 112°
2026-05-07 09:39 41.45620 27.37207 35111 ft 493 kts 112°
2026-05-07 09:40 41.42809 27.45544 35115 ft 493 kts 112°
2026-05-07 09:40 41.39991 27.53876 35110 ft 493 kts 112°
2026-05-07 09:41 41.37184 27.62205 35113 ft 492 kts 109°
2026-05-07 09:41 41.36269 27.66560 35103 ft 486 kts 94°
2026-05-07 09:41 41.36231 27.71003 35136 ft 479 kts 81°
2026-05-07 09:42 41.36816 27.79814 35119 ft 481 kts 81°
2026-05-07 09:42 41.37478 27.88670 35119 ft 481 kts 80°
2026-05-07 09:43 41.38160 27.97525 35090 ft 481 kts 80°
2026-05-07 09:43 41.38417 28.01961 34835 ft 480 kts 88°
2026-05-07 09:43 41.37992 28.06374 34284 ft 481 kts 99°
2026-05-07 09:43 41.37360 28.10746 33507 ft 482 kts 97°
2026-05-07 09:44 41.36734 28.15155 32521 ft 487 kts 98°
2026-05-07 09:44 41.36084 28.19598 31611 ft 491 kts 98°
2026-05-07 09:44 41.35423 28.24070 30808 ft 493 kts 98°
2026-05-07 09:44 41.34756 28.28559 29927 ft 495 kts 98°
2026-05-07 09:45 41.34083 28.33066 28938 ft 498 kts 98°
2026-05-07 09:45 41.33410 28.37568 28297 ft 493 kts 98°
2026-05-07 09:45 41.32745 28.42003 27835 ft 484 kts 98°
2026-05-07 09:45 41.32092 28.46340 27586 ft 472 kts 98°
2026-05-07 09:46 41.31455 28.50568 27323 ft 461 kts 98°
2026-05-07 09:46 41.30858 28.54705 27039 ft 450 kts 93°
2026-05-07 09:46 41.30781 28.62292 26292 ft 434 kts 85°
2026-05-07 09:47 41.30782 28.66292 25847 ft 431 kts 85°
2026-05-07 09:47 41.30786 28.70260 25388 ft 428 kts 85°
2026-05-07 09:47 41.30789 28.74202 24939 ft 425 kts 85°
2026-05-07 09:47 41.30790 28.78122 24495 ft 423 kts 85°
2026-05-07 09:48 41.30791 28.82019 24045 ft 420 kts 85°
2026-05-07 09:48 41.30790 28.85896 23580 ft 418 kts 85°
2026-05-07 09:48 41.30788 28.89752 23071 ft 416 kts 86°
2026-05-07 09:48 41.30785 28.93578 22621 ft 412 kts 86°
2026-05-07 09:49 41.30781 28.97373 22130 ft 409 kts 86°
2026-05-07 09:49 41.30775 29.01140 21732 ft 405 kts 86°
2026-05-07 09:49 41.30768 29.04867 21326 ft 401 kts 86°
2026-05-07 09:49 41.30760 29.08556 20905 ft 398 kts 86°
2026-05-07 09:50 41.30751 29.12222 20496 ft 395 kts 86°
2026-05-07 09:50 41.30741 29.15861 20070 ft 392 kts 86°
2026-05-07 09:50 41.30730 29.19437 19674 ft 380 kts 86°
2026-05-07 09:50 41.30739 29.22892 19235 ft 369 kts 85°
2026-05-07 09:51 41.30765 29.26255 18854 ft 358 kts 85°
2026-05-07 09:51 41.30787 29.29514 18486 ft 347 kts 85°
2026-05-07 09:51 41.30805 29.32679 18078 ft 337 kts 85°
2026-05-07 09:51 41.30823 29.35774 17697 ft 334 kts 85°
2026-05-07 09:52 41.30842 29.38855 17337 ft 333 kts 84°
2026-05-07 09:52 41.31248 29.41841 16908 ft 324 kts 63°
2026-05-07 09:52 41.32417 29.44312 16608 ft 311 kts 43°
2026-05-07 09:52 41.34038 29.46169 16302 ft 306 kts 34°
2026-05-07 09:53 41.35764 29.47911 15945 ft 319 kts 33°
2026-05-07 09:53 41.37581 29.49665 15575 ft 334 kts 33°
2026-05-07 09:53 41.39510 29.51481 15227 ft 343 kts 33°
2026-05-07 09:53 41.41481 29.53316 14847 ft 347 kts 32°
2026-05-07 09:54 41.43469 29.55151 14523 ft 348 kts 32°
2026-05-07 09:54 41.45440 29.57020 14172 ft 348 kts 39°
2026-05-07 09:54 41.46901 29.59575 13776 ft 352 kts 65°
2026-05-07 09:54 41.47323 29.62764 13432 ft 353 kts 92°
2026-05-07 09:55 41.46637 29.65912 13154 ft 360 kts 118°
2026-05-07 09:55 41.45164 29.68621 12918 ft 362 kts 125°
2026-05-07 09:55 41.43536 29.71156 12543 ft 361 kts 141°
2026-05-07 09:55 41.41344 29.72624 12079 ft 349 kts 168°
2026-05-07 09:56 41.38977 29.72756 11673 ft 335 kts 188°
2026-05-07 09:56 41.36698 29.72442 11288 ft 324 kts 186°
2026-05-07 09:56 41.34487 29.72200 10842 ft 316 kts 186°
2026-05-07 09:56 41.32305 29.71981 10274 ft 314 kts 186°
2026-05-07 09:57 41.30134 29.71778 9668 ft 312 kts 186°
2026-05-07 09:57 41.27983 29.71585 9112 ft 307 kts 186°
2026-05-07 09:57 41.25868 29.71398 8655 ft 301 kts 186°
2026-05-07 09:57 41.23810 29.71216 8303 ft 291 kts 186°
2026-05-07 09:58 41.21824 29.71042 8008 ft 281 kts 186°
2026-05-07 09:58 41.19909 29.70874 7718 ft 271 kts 187°
2026-05-07 09:58 41.18061 29.70714 7434 ft 262 kts 187°
2026-05-07 09:58 41.16255 29.70559 7186 ft 259 kts 187°
2026-05-07 09:59 41.14460 29.70406 6943 ft 258 kts 187°
2026-05-07 09:59 41.12664 29.70256 6656 ft 258 kts 187°
2026-05-07 09:59 41.10875 29.70106 6383 ft 257 kts 187°
2026-05-07 09:59 41.09109 29.69957 6217 ft 250 kts 186°
2026-05-07 10:00 41.07400 29.69814 6086 ft 242 kts 187°
2026-05-07 10:00 41.05764 29.69651 6038 ft 228 kts 193°
2026-05-07 10:00 41.04385 29.68838 5921 ft 211 kts 223°
2026-05-07 10:00 41.03472 29.67427 5855 ft 195 kts 239°
2026-05-07 10:01 41.02771 29.65889 5817 ft 196 kts 243°
2026-05-07 10:01 41.02124 29.64307 5791 ft 195 kts 244°
2026-05-07 10:01 41.01512 29.62727 5679 ft 195 kts 245°
2026-05-07 10:01 41.00904 29.61105 5570 ft 191 kts 246°
2026-05-07 10:02 41.00334 29.59556 5354 ft 189 kts 246°
2026-05-07 10:02 40.99762 29.57997 5080 ft 188 kts 246°
2026-05-07 10:02 40.99194 29.56445 4800 ft 186 kts 246°
2026-05-07 10:02 40.98633 29.54917 4522 ft 183 kts 245°
2026-05-07 10:03 40.98079 29.53402 4248 ft 182 kts 246°
2026-05-07 10:03 40.97530 29.51896 3986 ft 181 kts 245°
2026-05-07 10:03 40.96984 29.50406 3708 ft 179 kts 245°
2026-05-07 10:03 40.96455 29.48962 3463 ft 170 kts 245°
2026-05-07 10:04 40.95946 29.47570 3192 ft 167 kts 245°
2026-05-07 10:04 40.95440 29.46184 2951 ft 167 kts 245°
2026-05-07 10:04 40.94931 29.44807 2627 ft 165 kts 245°
2026-05-07 10:04 40.94442 29.43467 2437 ft 162 kts 245°
2026-05-07 10:05 40.93955 29.42129 2185 ft 162 kts 245°
2026-05-07 10:05 40.93471 29.40806 1955 ft 155 kts 245°
2026-05-07 10:05 40.93012 29.39552 1694 ft 148 kts 246°
2026-05-07 10:05 40.92566 29.38339 1459 ft 145 kts 245°
2026-05-07 10:06 40.92131 29.37146 1177 ft 143 kts 244°
2026-05-07 10:06 40.91703 29.35982 996 ft 141 kts 245°
2026-05-07 10:06 40.91287 29.34818 802 ft 140 kts 244°
2026-05-07 10:06 40.90852 29.33633 591 ft 144 kts 244°
2026-05-07 10:07 40.90414 29.32450 355 ft 141 kts 245°
2026-05-07 10:07 40.90027 29.31384 313 ft 110 kts 244°
2026-05-07 10:07 40.89757 29.30656 314 ft 63 kts 244°
2026-05-07 10:07 40.89637 29.30293 312 ft 28 kts 256°
2026-05-07 10:08 40.89631 29.30086 313 ft 21 kts 274°
2026-05-07 10:08 40.89638 29.29965 309 ft 5 kts 281°
2026-05-07 10:08 40.89642 29.29946 311 ft 5 kts 291°
2026-05-07 10:08 40.89703 29.29943 310 ft 14 kts 46°
2026-05-07 10:09 40.89752 29.30071 310 ft 18 kts 64°
2026-05-07 10:09 40.89822 29.30259 312 ft 27 kts 64°
2026-05-07 10:09 40.89909 29.30494 313 ft 27 kts 64°
2026-05-07 10:09 40.89992 29.30720 312 ft 25 kts 64°
2026-05-07 10:10 40.90059 29.30899 313 ft 13 kts 54°
2026-05-07 10:10 40.90147 29.30914 313 ft 15 kts 333°
2026-05-07 10:10 40.90225 29.30873 313 ft 7 kts
2026-05-07 10:10 40.90263 29.30929 313 ft 11 kts 65°
2026-05-07 10:11 40.90313 29.31066 313 ft 22 kts 64°
2026-05-07 10:11 40.90386 29.31265 313 ft 24 kts 64°
2026-05-07 10:11 40.90444 29.31422 313 ft 14 kts 64°
2026-05-07 10:11 40.90476 29.31489 313 ft 6 kts 21°
2026-05-07 10:12 40.90518 29.31469 313 ft 6 kts 334°
2026-05-07 10:12 40.90540 29.31455 313 ft 2 kts 334°
2026-05-07 10:12 40.90541 29.31454 313 ft 0 kts 334°